﻿測定場所 (Monitoring sites),日付 (Measurement date),時間 (Measurement time),線量率 最大値 (max) μGy/h,線量率 最小値 (min) μGy/h,線量率 平均値 (average) μGy/h,
調布 (Chofu),2020-03-29,23:01～24:00,0.0271,0.0231,0.0252,
調布 (Chofu),2020-03-29,22:01～23:00,0.0271,0.0234,0.0250,
調布 (Chofu),2020-03-29,21:01～22:00,0.0267,0.0224,0.0245,
調布 (Chofu),2020-03-29,20:01～21:00,0.0266,0.0229,0.0246,
調布 (Chofu),2020-03-29,19:01～20:00,0.0271,0.0227,0.0242,
調布 (Chofu),2020-03-29,18:01～19:00,0.0259,0.0224,0.0242,
調布 (Chofu),2020-03-29,17:01～18:00,0.0264,0.0228,0.0242,
調布 (Chofu),2020-03-29,16:01～17:00,0.0258,0.0226,0.0238,
調布 (Chofu),2020-03-29,15:01～16:00,0.0274,0.0226,0.0246,
調布 (Chofu),2020-03-29,14:01～15:00,0.0300,0.0238,0.0271,
調布 (Chofu),2020-03-29,13:01～14:00,0.0353,0.0274,0.0320,
調布 (Chofu),2020-03-29,12:01～13:00,0.0389,0.0322,0.0356,
調布 (Chofu),2020-03-29,11:01～12:00,0.0426,0.0342,0.0374,
調布 (Chofu),2020-03-29,10:01～11:00,0.0453,0.0368,0.0410,
調布 (Chofu),2020-03-29,09:01～10:00,0.0455,0.0366,0.0402,
調布 (Chofu),2020-03-29,08:01～09:00,0.0486,0.0383,0.0436,
調布 (Chofu),2020-03-29,07:01～08:00,0.0533,0.0432,0.0479,
調布 (Chofu),2020-03-29,06:01～07:00,0.0477,0.0411,0.0445,
調布 (Chofu),2020-03-29,05:01～06:00,0.0486,0.0413,0.0455,
調布 (Chofu),2020-03-29,04:01～05:00,0.0485,0.0411,0.0446,
調布 (Chofu),2020-03-29,03:01～04:00,0.0516,0.0418,0.0450,
調布 (Chofu),2020-03-29,02:01～03:00,0.0488,0.0415,0.0448,
調布 (Chofu),2020-03-29,01:01～02:00,0.0532,0.0445,0.0483,
調布 (Chofu),2020-03-29,00:01～01:00,0.0539,0.0452,0.0494,
調布 (Chofu),2020-03-28,23:01～24:00,0.0532,0.0446,0.0490,
調布 (Chofu),2020-03-28,22:01～23:00,0.0527,0.0398,0.0460,
調布 (Chofu),2020-03-28,21:01～22:00,0.0462,0.0362,0.0403,
調布 (Chofu),2020-03-28,20:01～21:00,0.0426,0.0337,0.0368,
調布 (Chofu),2020-03-28,19:01～20:00,0.0365,0.0315,0.0345,
調布 (Chofu),2020-03-28,18:01～19:00,0.0388,0.0322,0.0354,
調布 (Chofu),2020-03-28,17:01～18:00,0.0382,0.0319,0.0345,
調布 (Chofu),2020-03-28,16:01～17:00,0.0372,0.0317,0.0345,
調布 (Chofu),2020-03-28,15:01～16:00,0.0320,0.0263,0.0294,
調布 (Chofu),2020-03-28,14:01～15:00,0.0299,0.0265,0.0281,
調布 (Chofu),2020-03-28,13:01～14:00,0.0305,0.0264,0.0282,
調布 (Chofu),2020-03-28,12:01～13:00,0.0300,0.0262,0.0281,
調布 (Chofu),2020-03-28,11:01～12:00,0.0302,0.0266,0.0285,
調布 (Chofu),2020-03-28,10:01～11:00,0.0326,0.0272,0.0286,
調布 (Chofu),2020-03-28,09:01～10:00,0.0313,0.0276,0.0290,
調布 (Chofu),2020-03-28,08:01～09:00,0.0308,0.0271,0.0290,
調布 (Chofu),2020-03-28,07:01～08:00,0.0310,0.0267,0.0286,
調布 (Chofu),2020-03-28,06:01～07:00,0.0296,0.0259,0.0276,
調布 (Chofu),2020-03-28,05:01～06:00,0.0295,0.0256,0.0276,
調布 (Chofu),2020-03-28,04:01～05:00,0.0303,0.0252,0.0275,
調布 (Chofu),2020-03-28,03:01～04:00,0.0289,0.0261,0.0276,
調布 (Chofu),2020-03-28,02:01～03:00,0.0295,0.0251,0.0275,
調布 (Chofu),2020-03-28,01:01～02:00,0.0292,0.0250,0.0274,
調布 (Chofu),2020-03-28,00:01～01:00,0.0296,0.0257,0.0276,
調布 (Chofu),2020-03-27,23:01～24:00,0.0294,0.0253,0.0276,
調布 (Chofu),2020-03-27,22:01～23:00,0.0296,0.0261,0.0278,
調布 (Chofu),2020-03-27,21:01～22:00,0.0295,0.0259,0.0277,
調布 (Chofu),2020-03-27,20:01～21:00,0.0299,0.0262,0.0277,
調布 (Chofu),2020-03-27,19:01～20:00,0.0298,0.0259,0.0277,
調布 (Chofu),2020-03-27,18:01～19:00,0.0289,0.0256,0.0276,
調布 (Chofu),2020-03-27,17:01～18:00,0.0300,0.0262,0.0279,
調布 (Chofu),2020-03-27,16:01～17:00,0.0307,0.0259,0.0278,
調布 (Chofu),2020-03-27,15:01～16:00,0.0298,0.0253,0.0276,
調布 (Chofu),2020-03-27,14:01～15:00,0.0296,0.0255,0.0277,
調布 (Chofu),2020-03-27,13:01～14:00,0.0295,0.0252,0.0277,
調布 (Chofu),2020-03-27,12:01～13:00,0.0299,0.0255,0.0277,
調布 (Chofu),2020-03-27,11:01～12:00,0.0297,0.0259,0.0279,
調布 (Chofu),2020-03-27,10:01～11:00,0.0316,0.0270,0.0290,
調布 (Chofu),2020-03-27,09:01～10:00,0.0314,0.0281,0.0296,
調布 (Chofu),2020-03-27,08:01～09:00,0.0318,0.0278,0.0298,
調布 (Chofu),2020-03-27,07:01～08:00,0.0320,0.0284,0.0303,
調布 (Chofu),2020-03-27,06:01～07:00,0.0327,0.0287,0.0306,
調布 (Chofu),2020-03-27,05:01～06:00,0.0321,0.0286,0.0303,
調布 (Chofu),2020-03-27,04:01～05:00,0.0328,0.0281,0.0298,
調布 (Chofu),2020-03-27,03:01～04:00,0.0323,0.0282,0.0298,
調布 (Chofu),2020-03-27,02:01～03:00,0.0312,0.0277,0.0295,
調布 (Chofu),2020-03-27,01:01～02:00,0.0319,0.0278,0.0296,
調布 (Chofu),2020-03-27,00:01～01:00,0.0307,0.0272,0.0294,
調布 (Chofu),2020-03-26,23:01～24:00,0.0310,0.0268,0.0288,
調布 (Chofu),2020-03-26,22:01～23:00,0.0306,0.0272,0.0288,
調布 (Chofu),2020-03-26,21:01～22:00,0.0304,0.0265,0.0284,
調布 (Chofu),2020-03-26,20:01～21:00,0.0303,0.0256,0.0283,
調布 (Chofu),2020-03-26,19:01～20:00,0.0308,0.0269,0.0283,
調布 (Chofu),2020-03-26,18:01～19:00,0.0297,0.0265,0.0280,
調布 (Chofu),2020-03-26,17:01～18:00,0.0297,0.0258,0.0278,
調布 (Chofu),2020-03-26,16:01～17:00,0.0296,0.0252,0.0278,
調布 (Chofu),2020-03-26,15:01～16:00,0.0297,0.0259,0.0279,
調布 (Chofu),2020-03-26,14:01～15:00,0.0297,0.0264,0.0279,
調布 (Chofu),2020-03-26,13:01～14:00,0.0296,0.0259,0.0280,
調布 (Chofu),2020-03-26,12:01～13:00,0.0303,0.0260,0.0284,
調布 (Chofu),2020-03-26,11:01～12:00,0.0304,0.0262,0.0283,
調布 (Chofu),2020-03-26,10:01～11:00,0.0306,0.0269,0.0284,
調布 (Chofu),2020-03-26,09:01～10:00,0.0308,0.0270,0.0286,
調布 (Chofu),2020-03-26,08:01～09:00,0.0307,0.0272,0.0289,
調布 (Chofu),2020-03-26,07:01～08:00,0.0310,0.0277,0.0293,
調布 (Chofu),2020-03-26,06:01～07:00,0.0315,0.0268,0.0290,
調布 (Chofu),2020-03-26,05:01～06:00,0.0311,0.0265,0.0287,
調布 (Chofu),2020-03-26,04:01～05:00,0.0309,0.0269,0.0289,
調布 (Chofu),2020-03-26,03:01～04:00,0.0300,0.0270,0.0285,
調布 (Chofu),2020-03-26,02:01～03:00,0.0310,0.0266,0.0286,
調布 (Chofu),2020-03-26,01:01～02:00,0.0304,0.0264,0.0286,
調布 (Chofu),2020-03-26,00:01～01:00,0.0309,0.0268,0.0288,
調布 (Chofu),2020-03-25,23:01～24:00,0.0302,0.0263,0.0284,
調布 (Chofu),2020-03-25,22:01～23:00,0.0303,0.0260,0.0279,
調布 (Chofu),2020-03-25,21:01～22:00,0.0297,0.0261,0.0278,
調布 (Chofu),2020-03-25,20:01～21:00,0.0301,0.0255,0.0278,
調布 (Chofu),2020-03-25,19:01～20:00,0.0295,0.0256,0.0279,
調布 (Chofu),2020-03-25,18:01～19:00,0.0301,0.0260,0.0278,
調布 (Chofu),2020-03-25,17:01～18:00,0.0295,0.0258,0.0275,
調布 (Chofu),2020-03-25,16:01～17:00,0.0301,0.0259,0.0279,
調布 (Chofu),2020-03-25,15:01～16:00,0.0301,0.0252,0.0279,
調布 (Chofu),2020-03-25,14:01～15:00,0.0303,0.0265,0.0280,
調布 (Chofu),2020-03-25,13:01～14:00,0.0293,0.0263,0.0278,
調布 (Chofu),2020-03-25,12:01～13:00,0.0297,0.0259,0.0279,
調布 (Chofu),2020-03-25,11:01～12:00,0.0297,0.0262,0.0278,
調布 (Chofu),2020-03-25,10:01～11:00,0.0293,0.0261,0.0279,
調布 (Chofu),2020-03-25,09:01～10:00,0.0293,0.0257,0.0279,
調布 (Chofu),2020-03-25,08:01～09:00,0.0305,0.0264,0.0284,
調布 (Chofu),2020-03-25,07:01～08:00,0.0315,0.0271,0.0295,
調布 (Chofu),2020-03-25,06:01～07:00,0.0300,0.0259,0.0284,
調布 (Chofu),2020-03-25,05:01～06:00,0.0305,0.0264,0.0287,
調布 (Chofu),2020-03-25,04:01～05:00,0.0303,0.0254,0.0281,
調布 (Chofu),2020-03-25,03:01～04:00,0.0305,0.0266,0.0284,
調布 (Chofu),2020-03-25,02:01～03:00,0.0307,0.0263,0.0282,
調布 (Chofu),2020-03-25,01:01～02:00,0.0295,0.0260,0.0277,
調布 (Chofu),2020-03-25,00:01～01:00,0.0300,0.0265,0.0281,
調布 (Chofu),2020-03-24,23:01～24:00,0.0295,0.0258,0.0280,
調布 (Chofu),2020-03-24,22:01～23:00,0.0299,0.0260,0.0278,
調布 (Chofu),2020-03-24,21:01～22:00,0.0294,0.0266,0.0280,
調布 (Chofu),2020-03-24,20:01～21:00,0.0297,0.0259,0.0279,
調布 (Chofu),2020-03-24,19:01～20:00,0.0297,0.0262,0.0277,
調布 (Chofu),2020-03-24,18:01～19:00,0.0310,0.0261,0.0276,
調布 (Chofu),2020-03-24,17:01～18:00,0.0300,0.0261,0.0279,
調布 (Chofu),2020-03-24,16:01～17:00,0.0296,0.0257,0.0277,
調布 (Chofu),2020-03-24,15:01～16:00,0.0294,0.0254,0.0277,
調布 (Chofu),2020-03-24,14:01～15:00,0.0292,0.0260,0.0278,
調布 (Chofu),2020-03-24,13:01～14:00,0.0305,0.0258,0.0278,
調布 (Chofu),2020-03-24,12:01～13:00,0.0302,0.0257,0.0281,
調布 (Chofu),2020-03-24,11:01～12:00,0.0305,0.0262,0.0281,
調布 (Chofu),2020-03-24,10:01～11:00,0.0294,0.0260,0.0278,
調布 (Chofu),2020-03-24,09:01～10:00,0.0303,0.0260,0.0281,
調布 (Chofu),2020-03-24,08:01～09:00,0.0305,0.0265,0.0282,
調布 (Chofu),2020-03-24,07:01～08:00,0.0299,0.0263,0.0282,
調布 (Chofu),2020-03-24,06:01～07:00,0.0297,0.0263,0.0281,
調布 (Chofu),2020-03-24,05:01～06:00,0.0301,0.0265,0.0281,
調布 (Chofu),2020-03-24,04:01～05:00,0.0300,0.0263,0.0280,
調布 (Chofu),2020-03-24,03:01～04:00,0.0297,0.0265,0.0280,
調布 (Chofu),2020-03-24,02:01～03:00,0.0307,0.0260,0.0280,
調布 (Chofu),2020-03-24,01:01～02:00,0.0299,0.0270,0.0284,
調布 (Chofu),2020-03-24,00:01～01:00,0.0304,0.0269,0.0285,
調布 (Chofu),2020-03-23,23:01～24:00,0.0312,0.0265,0.0283,
調布 (Chofu),2020-03-23,22:01～23:00,0.0315,0.0259,0.0281,
調布 (Chofu),2020-03-23,21:01～22:00,0.0298,0.0261,0.0283,
調布 (Chofu),2020-03-23,20:01～21:00,0.0292,0.0249,0.0277,
調布 (Chofu),2020-03-23,19:01～20:00,0.0295,0.0255,0.0277,
調布 (Chofu),2020-03-23,18:01～19:00,0.0305,0.0259,0.0279,
調布 (Chofu),2020-03-23,17:01～18:00,0.0295,0.0258,0.0277,
調布 (Chofu),2020-03-23,16:01～17:00,0.0296,0.0266,0.0280,
調布 (Chofu),2020-03-23,15:01～16:00,0.0306,0.0264,0.0281,
調布 (Chofu),2020-03-23,14:01～15:00,0.0296,0.0257,0.0279,
調布 (Chofu),2020-03-23,13:01～14:00,0.0295,0.0261,0.0281,
調布 (Chofu),2020-03-23,12:01～13:00,0.0299,0.0267,0.0283,
調布 (Chofu),2020-03-23,11:01～12:00,0.0307,0.0266,0.0283,
調布 (Chofu),2020-03-23,10:01～11:00,0.0308,0.0266,0.0289,
調布 (Chofu),2020-03-23,09:01～10:00,0.0333,0.0275,0.0299,
調布 (Chofu),2020-03-23,08:01～09:00,0.0308,0.0262,0.0281,
調布 (Chofu),2020-03-23,07:01～08:00,0.0298,0.0262,0.0279,
調布 (Chofu),2020-03-23,06:01～07:00,0.0293,0.0267,0.0280,
調布 (Chofu),2020-03-23,05:01～06:00,0.0301,0.0257,0.0281,
調布 (Chofu),2020-03-23,04:01～05:00,0.0307,0.0267,0.0284,
調布 (Chofu),2020-03-23,03:01～04:00,0.0300,0.0258,0.0282,
調布 (Chofu),2020-03-23,02:01～03:00,0.0300,0.0262,0.0278,
調布 (Chofu),2020-03-23,01:01～02:00,0.0297,0.0259,0.0280,
調布 (Chofu),2020-03-23,00:01～01:00,0.0304,0.0263,0.0281,
